Find Starlink 36587

NORAD ID: 67532 Int'l Des: 2026-014 Owner: SPXS Country: US Constellation: starlink operational
LEOCIRCULARRETROGRADE

現在のビュー

3D地球を読み込み中...

Starlink 36587について

説明を読み込み中...

次回通過

Passes for default location (London). Set your location on the main map for personalized predictions.

高度履歴

Loading altitude history...

軌道要素

1 67532U 26014A 26146.58226639 .00033229 00000-0 10271-2 0 9998
2 67532 97.2868 33.6535 0002289 50.2797 309.8647 15.33443631 20722
Epoch: May 26, 2026 • Age: 8 hours

現在のステータス

高度 491.1 km
速度 7.62 km/s
衛星直下点 -65.50°S, 157.04°W
打ち上げ日 Jan 22, 2026
運用期間 0.3 years
タイプ internet

技術仕様

分類 Payload
質量 575.00 kg
乾燥質量 530.00 kg
総質量 575.00 kg
長さ 0.30 m
直径 4.10 m
スパン 29.00 m
形状 Box + pan
製造者 SPXS
バスタイプ Starlink V2MO
フェーズステータス In Orbit
所有者/国 SPXS/US

Most Searched